Date,TemperatureHighF,TemperatureAvgF,TemperatureLowF,DewpointHighF,DewpointAvgF,DewpointLowF,HumidityHigh,HumidityAvg,HumidityLow,PressureMaxIn,PressureMinIn,WindSpeedMaxMPH,WindSpeedAvgMPH,GustSpeedMaxMPH,PrecipitationSumIn
2013-3-1,24.0,23.0,20.7,20.0,18.3,16.0,85,82,77,30.28,30.13,11,5,18,0.00
2013-3-2,25.8,17.8,7.3,16.0,11.0,4.0,88,75,60,30.29,30.23,10,3,15,0.00
2013-3-3,32.0,17.8,2.7,14.0,8.5,-1.0,89,69,45,30.23,30.14,5,1,9,0.00
2013-3-4,30.7,23.7,14.1,25.0,18.3,8.0,89,80,69,30.18,30.04,13,4,18,0.00
2013-3-5,30.9,28.5,24.6,29.0,26.2,23.0,94,91,80,30.10,29.86,11,4,20,0.13
2013-3-6,31.9,28.0,24.6,27.0,24.4,22.0,90,86,81,30.36,30.10,12,4,17,0.23
2013-3-7,35.6,27.6,17.2,25.0,21.9,15.0,92,79,64,30.46,30.34,5,1,8,0.22
2013-3-8,36.6,24.8,10.8,27.0,20.2,8.0,93,83,68,30.52,30.34,11,2,15,0.00
2013-3-9,39.9,35.2,27.6,35.0,30.2,23.0,91,82,77,30.34,29.83,13,6,20,0.14
2013-3-10,43.1,40.2,38.3,42.0,39.0,35.0,97,95,86,29.85,29.62,7,3,15,0.53
2013-3-11,39.1,33.8,30.2,38.0,32.6,27.0,97,95,89,29.82,29.58,15,3,20,0.09
2013-3-12,33.6,28.3,23.6,30.0,23.7,19.0,93,83,70,30.07,29.82,16,7,24,0.03
2013-3-13,30.9,25.0,19.2,20.0,14.1,8.0,85,65,39,30.37,30.07,13,6,20,0.00
2013-3-14,32.4,25.7,16.1,29.0,20.9,12.0,95,82,67,30.37,30.12,10,2,13,0.00
2013-3-15,37.3,31.3,25.2,33.0,29.5,24.0,96,93,79,30.12,29.80,14,2,14,0.17
2013-3-16,31.9,28.8,24.8,29.0,24.9,21.0,94,85,73,30.17,29.79,13,5,16,0.00
2013-3-17,33.9,27.7,20.2,24.0,20.0,14.0,83,73,64,30.26,30.02,13,5,16,0.00
2013-3-18,33.2,27.7,18.5,31.0,24.2,13.0,93,86,77,30.01,29.65,24,7,26,0.12
2013-3-19,28.9,20.3,12.8,14.0,11.1,7.0,81,68,52,30.14,29.82,25,12,34,0.00
2013-3-20,20.7,15.5,9.0,12.0,6.1,1.0,80,67,61,30.17,30.09,17,8,25,0.00
2013-3-21,27.8,18.6,9.0,15.0,9.6,3.0,85,69,55,30.13,30.07,10,3,13,0.00
2013-3-22,35.6,24.3,12.1,21.0,14.9,9.0,87,69,50,30.13,30.07,7,2,9,0.00
2013-3-23,39.1,30.3,21.2,26.0,21.1,17.0,86,70,50,30.18,30.08,5,2,11,0.00
2013-3-24,35.4,31.0,28.8,28.0,25.8,22.0,93,81,70,30.10,29.76,14,5,22,0.00
2013-3-25,34.4,30.1,25.8,27.0,24.1,21.0,85,78,71,30.14,29.81,14,6,22,0.00
2013-3-26,40.5,34.7,30.6,27.0,25.4,21.0,82,70,53,30.29,30.14,8,3,14,0.00
2013-3-27,40.4,34.4,26.0,27.0,24.0,20.0,81,66,49,30.36,30.29,7,2,11,0.00
2013-3-28,46.7,36.2,24.8,27.0,23.6,20.0,85,62,42,30.39,30.32,7,2,11,0.00
2013-3-29,52.2,41.0,28.1,29.0,25.9,23.0,81,57,36,30.36,30.26,8,2,10,0.00
2013-3-30,55.5,42.7,28.2,42.0,33.2,23.0,90,70,55,30.27,29.86,14,4,22,0.00
2013-3-31,53.1,42.3,32.5,42.0,34.8,21.0,95,76,52,29.93,29.74,20,7,27,0.01